When you browse on this site, cookies collect data to enhance your experience and personalize the content and advertising you see.
Visit our Privacy Policy to learn more. By continuing to use the site, you agree to this use of cookies and data.
  • In Hungary
  • List of Countries
  • For 7 days
  • Water Temperature
  • Weather Map
  • News
  • Weather Widgets
  • user-avatar
    Login

    Hourly Weather Shatilovo

    Today, 20 January, Monday

    Time Temperature Precipitation Wind Pressure Humidity
    00:00 -2°C° 0 mm 3 mps 758 mmHg 93%
    01:00 -3°C° 0 mm 4 mps 758 mmHg 93%
    02:00 -3°C° 0 mm 4 mps 758 mmHg 93%
    03:00 -3°C° 0 mm 4 mps 758 mmHg 92%
    04:00 -3°C° 0 mm 4 mps 758 mmHg 92%
    05:00 -3°C° 0 mm 4 mps 757 mmHg 92%
    06:00 -3°C° 0 mm 4 mps 757 mmHg 92%
    07:00 -3°C° 0 mm 4 mps 757 mmHg 92%
    08:00 -4°C° 0 mm 5 mps 757 mmHg 93%
    09:00 -4°C° 0 mm 5 mps 757 mmHg 93%
    10:00 -2°C° 0 mm 5 mps 756 mmHg 93%
    11:00 -3°C° 0 mm 6 mps 756 mmHg 92%
    12:00 -2°C° 0 mm 6 mps 756 mmHg 92%
    13:00 -2°C° 0 mm 6 mps 756 mmHg 92%
    14:00 -1°C° 0 mm 5 mps 756 mmHg 92%
    15:00 -1°C° 0 mm 5 mps 755 mmHg 92%
    16:00 -1°C° 0 mm 5 mps 755 mmHg 93%
    17:00 -1°C° 0 mm 5 mps 755 mmHg 95%
    18:00 -1°C° 0 mm 5 mps 755 mmHg 97%
    19:00 -2°C° 0 mm 5 mps 755 mmHg 96%
    20:00 -2°C° 0 mm 5 mps 754 mmHg 96%
    21:00 -2°C° 0 mm 5 mps 754 mmHg 96%
    22:00 -2°C° 0 mm 5 mps 754 mmHg 96%
    23:00 -2°C° 0 mm 5 mps 754 mmHg 96%

    Tomorrow, 21 January, Tuesday

    Time Temperature Precipitation Wind Pressure Humidity
    00:00 -2°C° 0 mm 5 mps 753 mmHg 96%
    01:00 -2°C° 0 mm 5 mps 753 mmHg 95%
    02:00 -2°C° 0 mm 5 mps 753 mmHg 94%
    03:00 -2°C° 0 mm 5 mps 752 mmHg 93%
    04:00 -2°C° 0 mm 5 mps 752 mmHg 91%
    05:00 -4°C° 0 mm 5 mps 751 mmHg 89%
    06:00 -4°C° 0 mm 5 mps 750 mmHg 88%
    07:00 -4°C° 0.1 mm 5 mps 750 mmHg 90%
    08:00 -4°C° 0.1 mm 6 mps 749 mmHg 91%
    09:00 -4°C° 0.1 mm 6 mps 749 mmHg 93%
    10:00 -4°C° 0.4 mm 7 mps 748 mmHg 94%
    11:00 -4°C° 0.4 mm 7 mps 747 mmHg 95%
    12:00 -4°C° 0.4 mm 8 mps 746 mmHg 96%
    13:00 -4°C° 0.4 mm 8 mps 745 mmHg 96%
    14:00 -2°C° 0.4 mm 7 mps 745 mmHg 96%
    15:00 -2°C° 0.4 mm 7 mps 744 mmHg 96%
    16:00 -2°C° 0.1 mm 7 mps 743 mmHg 96%
    17:00 -1°C° 0.1 mm 6 mps 742 mmHg 96%
    18:00 -1°C° 0.1 mm 6 mps 742 mmHg 96%
    19:00 -1°C° 0.2 mm 6 mps 741 mmHg 97%
    20:00 -1°C° 0.2 mm 6 mps 740 mmHg 97%
    21:00 -1°C° 0.2 mm 6 mps 739 mmHg 97%
    22:00 0°C° 1 mm 7 mps 738 mmHg 96%
    23:00 0°C° 1 mm 8 mps 737 mmHg 96%

    Day after tomorrow, 22 January, Wednesday

    Time Temperature Precipitation Wind Pressure Humidity
    00:00 0°C° 1 mm 8 mps 736 mmHg 95%
    01:00 0°C° 0.3 mm 8 mps 736 mmHg 93%
    02:00 0°C° 0.3 mm 8 mps 736 mmHg 92%
    03:00 0°C° 0.3 mm 7 mps 736 mmHg 90%
    04:00 -1°C° 0 mm 7 mps 737 mmHg 86%
    05:00 -2°C° 0 mm 7 mps 737 mmHg 82%
    06:00 -3°C° 0 mm 7 mps 737 mmHg 78%
    07:00 -3°C° 0 mm 6 mps 737 mmHg 79%
    08:00 -4°C° 0 mm 6 mps 737 mmHg 80%
    09:00 -4°C° 0 mm 6 mps 737 mmHg 81%
    10:00 -4°C° 0 mm 6 mps 736 mmHg 80%
    11:00 -3°C° 0 mm 6 mps 736 mmHg 79%
    12:00 -3°C° 0 mm 7 mps 736 mmHg 78%
    13:00 -3°C° 0 mm 6 mps 736 mmHg 77%
    14:00 -3°C° 0 mm 6 mps 735 mmHg 77%
    15:00 -2°C° 0 mm 5 mps 735 mmHg 77%
    16:00 -2°C° 0 mm 5 mps 735 mmHg 78%
    17:00 -4°C° 0 mm 5 mps 735 mmHg 80%
    18:00 -3°C° 0 mm 4 mps 734 mmHg 82%
    19:00 -3°C° 0 mm 4 mps 734 mmHg 83%
    20:00 -3°C° 0 mm 4 mps 734 mmHg 83%
    21:00 -3°C° 0 mm 4 mps 734 mmHg 84%
    22:00 -4°C° 0 mm 4 mps 734 mmHg 84%
    23:00 -5°C° 0 mm 5 mps 734 mmHg 83%

    23 January, Thursday

    Time Temperature Precipitation Wind Pressure Humidity
    00:00 -5°C° 0 mm 5 mps 734 mmHg 83%
    01:00 -5°C° 0 mm 5 mps 734 mmHg 84%
    02:00 -5°C° 0 mm 5 mps 735 mmHg 86%
    03:00 -5°C° 0 mm 6 mps 735 mmHg 87%
    04:00 -6°C° 0 mm 6 mps 735 mmHg 84%
    05:00 -6°C° 0 mm 5 mps 736 mmHg 81%
    06:00 -6°C° 0 mm 5 mps 736 mmHg 77%
    07:00 -6°C° 0.1 mm 6 mps 737 mmHg 78%
    08:00 -8°C° 0.1 mm 6 mps 737 mmHg 79%
    09:00 -8°C° 0.1 mm 7 mps 738 mmHg 80%
    10:00 -8°C° 0.1 mm 7 mps 739 mmHg 75%
    11:00 -8°C° 0.1 mm 7 mps 740 mmHg 71%
    12:00 -9°C° 0.1 mm 7 mps 740 mmHg 66%
    13:00 -9°C° 0 mm 7 mps 741 mmHg 66%
    14:00 -9°C° 0 mm 7 mps 742 mmHg 65%
    15:00 -9°C° 0 mm 7 mps 742 mmHg 65%
    16:00 -9°C° 0 mm 6 mps 743 mmHg 66%
    17:00 -10°C° 0 mm 6 mps 744 mmHg 67%
    18:00 -10°C° 0 mm 5 mps 744 mmHg 69%
    19:00 -10°C° 0 mm 5 mps 745 mmHg 70%
    20:00 -10°C° 0 mm 5 mps 746 mmHg 71%
    21:00 -11°C° 0 mm 5 mps 746 mmHg 73%
    22:00 -10°C° 0 mm 4 mps 747 mmHg 74%
    23:00 -10°C° 0 mm 4 mps 747 mmHg 76%

    24 January, Friday

    Time Temperature Precipitation Wind Pressure Humidity
    00:00 -9°C° 0 mm 3 mps 748 mmHg 77%
    01:00 -9°C° 0 mm 3 mps 748 mmHg 77%
    02:00 -11°C° 0 mm 4 mps 748 mmHg 78%
    03:00 -11°C° 0 mm 4 mps 749 mmHg 78%
    04:00 -11°C° 0 mm 4 mps 749 mmHg 78%
    05:00 -9°C° 0 mm 3 mps 749 mmHg 79%
    06:00 -9°C° 0 mm 3 mps 748 mmHg 79%
    07:00 -9°C° 0 mm 3 mps 748 mmHg 80%
    08:00 -9°C° 0 mm 3 mps 748 mmHg 81%
    09:00 -10°C° 0 mm 4 mps 748 mmHg 81%
    10:00 -9°C° 0 mm 4 mps 748 mmHg 82%
    11:00 -8°C° 0 mm 5 mps 747 mmHg 82%
    12:00 -8°C° 0 mm 5 mps 747 mmHg 83%
    13:00 -7°C° 0.1 mm 5 mps 746 mmHg 86%
    14:00 -6°C° 0.1 mm 6 mps 746 mmHg 88%
    15:00 -5°C° 0.1 mm 6 mps 745 mmHg 91%
    16:00 -5°C° 0 mm 6 mps 745 mmHg 91%
    17:00 -5°C° 0 mm 6 mps 744 mmHg 92%
    18:00 -5°C° 0 mm 6 mps 744 mmHg 93%
    19:00 -5°C° 0.1 mm 6 mps 744 mmHg 93%
    20:00 -4°C° 0.1 mm 6 mps 743 mmHg 93%
    21:00 -4°C° 0.1 mm 6 mps 743 mmHg 94%
    22:00 -3°C° 0.1 mm 6 mps 743 mmHg 94%
    23:00 -3°C° 0.1 mm 6 mps 743 mmHg 94%

    25 January, Saturday

    Time Temperature Precipitation Wind Pressure Humidity
    00:00 -2°C° 0.1 mm 6 mps 742 mmHg 94%
    01:00 -2°C° 0.1 mm 6 mps 742 mmHg 94%
    02:00 -2°C° 0.1 mm 6 mps 742 mmHg 94%
    03:00 -2°C° 0.1 mm 6 mps 741 mmHg 95%
    04:00 -2°C° 0.6 mm 6 mps 741 mmHg 95%
    05:00 -2°C° 0.6 mm 7 mps 741 mmHg 96%
    06:00 -2°C° 0.6 mm 7 mps 741 mmHg 97%
    07:00 -2°C° 0.2 mm 6 mps 741 mmHg 97%
    08:00 -2°C° 0.2 mm 6 mps 741 mmHg 97%
    09:00 -2°C° 0.2 mm 6 mps 741 mmHg 97%
    10:00 -1°C° 0.2 mm 6 mps 742 mmHg 96%
    11:00 0°C° 0.2 mm 5 mps 742 mmHg 96%
    12:00 0°C° 0.2 mm 5 mps 743 mmHg 96%
    13:00 0°C° 0 mm 5 mps 743 mmHg 95%
    14:00 0°C° 0 mm 5 mps 743 mmHg 95%
    15:00 0°C° 0 mm 5 mps 743 mmHg 95%
    16:00 0°C° 0 mm 5 mps 744 mmHg 94%
    17:00 -1°C° 0 mm 5 mps 744 mmHg 93%
    18:00 -1°C° 0 mm 5 mps 744 mmHg 92%
    19:00 -1°C° 0 mm 5 mps 744 mmHg 92%
    20:00 -1°C° 0 mm 5 mps 745 mmHg 92%
    21:00 -1°C° 0 mm 5 mps 745 mmHg 92%
    22:00 -1°C° 0 mm 5 mps 745 mmHg 93%
    23:00 -1°C° 0 mm 5 mps 746 mmHg 94%
    Show more